星链-30099 (STARLINK-30099 )

导读 | 豆包AI

STARLINK-30099是美国SpaceX公司星链星座的成员,于2023年4月19日发射入轨,运行在近地低轨轨道。它属于星链全球卫星互联网项目,采用相控阵天线、激光星间链路等技术,可提供低时延宽带互联网接入服务,助力实现全球覆盖网络,支持应急通信、偏远地区联网等应用场景。

基本信息
目录编号:
56304
目录名称:
STARLINK-30099
国际标识:
2023-056U
轨道中心:
EARTH
卫星名称:
星链-30099
卫星全名:
星链-30099 (STARLINK-30099 )
卫星状态:
在轨 (已飞行1107 天)
发射日期:
2023-04-19 UTC
国别 :
美国 (US)
星等 :
--
轨道信息
数据来源 国际轨道数据
星历时间: 2026-04-30T05:29:03+0800
18小时前
查看轨道信息
半长轴: 6861.127km
偏心率: 0.0001894
轨道倾角: 43.006°
近地点辐角 267.387°
升交点赤经 279.442°
平近点角 92.677°
近地点: 481.69km
远地点: 484.29km
周期: 94.266分钟
每日圈数: 15.276
详细信息
固有亮度:
5
最大亮度:
0.3
卫星平台:
Starlink v2.0 mini
覆盖范围:
全球
运营商:
太空探索技术公司
运营商所在国:
美国
制造商(研发单位):
太空探索技术公司
制造商所在国:
美国
使用方式:
暂无
卫星简介
星链(Starlink)计划是由太空探索技术公司(SpaceX)提出的一个巨型低轨卫星互联网星座项目,计划在2019年至2024年间在太空搭建由约1.2万颗卫星组成的“星链”网络,其中1584颗将部署在地球上空550千米处的近地轨道,并从2020年开始工作。该卫星仍在工作。
2D轨道图
3D轨道图
轨道高度分析图
轨道倾角分析图
轨道综合分析图
查看轨道综合分析图